Location: Briis
(48.6240°N, 2.1211°E)
Time: 11:34:57
(UTC+00:00)

Cosmos 1782 Rocket - Pass Details

Date: 25 September 2020
Orbit: 606 x 632 km, 82.5° (Epoch: 30 October)

Event Time Altitude Azimuth Distance (km) Brightness Sun altitude
Rises 04:54:15 0° 350° (N) 2,941 7.0 -8.8°
Reaches altitude 10° 04:56:31 10° 350° (N) 2,026 6.2 -8.5°
Maximum altitude 05:01:01 89° 258° (WSW) 638 3.6 -7.7°
Drops below altitude 10° 05:05:28 10° 172° (S) 2,000 6.2 -7.0°
Sets 05:07:41 0° 173° (S) 2,899 7.0 -6.6°
